Weather History for Zanesville, OH

Change the Weather History Date:

Tuesday, August 27, 2013

  Actual Average Record
Temperature  
Mean Temperature 24 °C 22 °C  
Max Temperature 27 °C 28 °C 35 °C (1953)
Min Temperature 22 °C 15 °C 7 °C (1958)
Degree Days  
Heating Degree Days 0 0  
Month to date heating degree days 9 0  
Since 1 June heating degree days 27 35  
Since 1 July heating degree days 9 3  
Cooling Degree Days 11 6  
Month to date cooling degree days 146 195  
Year to date cooling degree days 685 656  
Since 1 June cooling degree days 577 602  
Growing Degree Days 26 (Base 50)    
Moisture  
Dew Point 21 °C    
Average Humidity 81    
Maximum Humidity 87    
Minimum Humidity 74    
Precipitation  
Precipitation 0.00 mm 2.54 mm 4.78 mm (1978)
Month to date precipitation 4.25 2.81  
Year to date precipitation 27.52 26.10  
Sea Level Pressure  
Sea Level Pressure 1016 hPa    
Wind  
Wind Speed 6 km/h (SW)    
Max Wind Speed 16 km/h    
Max Gust Speed 21 km/h    
Visibility 10 kilometers    
Events      
T = Trace of Precipitation, MM = Missing Value Source: NWS Daily Summary

Daily Weather History Graph

Daily Weather History Graph

Search for Another Location

Airport:

Trip Planner

Search our weather history database for the weather conditions in past years. The results will help you decide how hot, cold, wet, or windy it might be!

Date:

Astronomy

Aug. 27, 2013 Rise Set
Actual Time 6:50 AM EDT 8:06 PM EDT
Civil Twilight 6:22 AM EDT 8:34 PM EDT
Nautical Twilight 5:49 AM EDT 9:07 PM EDT
Astronomical Twilight 5:13 AM EDT 9:42 PM EDT
Moon 11:59 PM EDT (8/27) 1:47 PM EDT (8/27)
Length of Visible Light 14h 11m
Length of Day
13h 15m
Waning Gibbous, 57% of the Moon is Illuminated
Aug 27
Waning Gibbous
Aug 28
Last Quarter
Sep 5
New
Sep 12
First Quarter
Sep 19
Full

Hourly Weather History & Observations

Time (EDT) Temp. Heat Index Dew Point Humidity Pressure Visibility Wind Dir Wind Speed Gust Speed Precip Events Conditions
12:53 AM 21.7 °C - 19.4 °C 87% 1017.6 hPa 9.7 km Calm Calm - N/A   Mostly Cloudy
1:53 AM 21.7 °C - 19.4 °C 87% 1017.2 hPa 9.7 km Calm Calm - N/A   Scattered Clouds
2:53 AM 22.2 °C - 19.4 °C 84% 1016.9 hPa 9.7 km WSW 7.4 km/h / 2.1 m/s - N/A   Haze
3:53 AM 22.2 °C - 19.4 °C 84% 1016.7 hPa 9.7 km SW 9.3 km/h / 2.6 m/s - N/A   Haze
4:53 AM 22.2 °C - 19.4 °C 84% 1016.6 hPa 9.7 km SW 5.6 km/h / 1.5 m/s - N/A   Haze
5:53 AM 22.2 °C - 19.4 °C 84% 1016.5 hPa 9.7 km WSW 7.4 km/h / 2.1 m/s - N/A   Haze
6:53 AM 21.7 °C - 19.4 °C 87% 1016.6 hPa 8.0 km WSW 5.6 km/h / 1.5 m/s - N/A   Clear
7:53 AM 21.7 °C - 19.4 °C 87% 1017.0 hPa 6.4 km SW 5.6 km/h / 1.5 m/s - N/A   Clear
8:53 AM 22.2 °C - 19.4 °C 84% 1017.0 hPa 6.4 km SW 5.6 km/h / 1.5 m/s - N/A   Haze
9:53 AM 22.8 °C - 20.0 °C 84% 1017.1 hPa 6.4 km Variable 5.6 km/h / 1.5 m/s - N/A   Haze
10:53 AM 23.3 °C - 20.6 °C 85% 1017.6 hPa 6.4 km WSW 5.6 km/h / 1.5 m/s - N/A   Haze
11:53 AM 24.4 °C - 21.1 °C 82% 1017.8 hPa 8.0 km Calm Calm - N/A   Haze
12:53 PM 25.0 °C - 20.6 °C 76% 1017.3 hPa 9.7 km Variable 9.3 km/h / 2.6 m/s - N/A   Haze
1:08 PM 25.0 °C - 21.0 °C 78% 1017.8 hPa 12.9 km Variable 7.4 km/h / 2.1 m/s - N/A   Mostly Cloudy
1:25 PM 25.0 °C - 21.0 °C 78% 1018.2 hPa 11.3 km NW 5.6 km/h / 1.5 m/s - N/A   Mostly Cloudy
1:34 PM 25.0 °C - 20.0 °C 74% 1017.5 hPa 12.9 km Calm Calm - N/A   Mostly Cloudy
1:53 PM 24.4 °C - 20.6 °C 79% 1015.7 hPa 11.3 km SSW 13.0 km/h / 3.6 m/s - N/A   Scattered Clouds
2:53 PM 25.0 °C - 21.1 °C 79% 1016.1 hPa 14.5 km WNW 5.6 km/h / 1.5 m/s - N/A   Partly Cloudy
3:53 PM 26.1 °C - 21.1 °C 74% 1015.3 hPa 11.3 km WSW 14.8 km/h / 4.1 m/s - N/A   Clear
4:53 PM 26.7 °C 28.6 °C 21.7 °C 74% 1015.0 hPa 14.5 km Variable 9.3 km/h / 2.6 m/s - N/A   Clear
5:53 PM 26.7 °C 28.6 °C 21.7 °C 74% 1014.7 hPa 11.3 km SSW 9.3 km/h / 2.6 m/s - N/A   Clear
6:53 PM 26.7 °C 28.8 °C 22.2 °C 76% 1014.4 hPa 11.3 km SSW 7.4 km/h / 2.1 m/s - N/A   Clear
7:53 PM 25.6 °C - 22.2 °C 81% 1014.4 hPa 9.7 km Calm Calm - N/A   Haze
8:53 PM 25.0 °C - 22.2 °C 84% 1013.8 hPa 11.3 km SSW 7.4 km/h / 2.1 m/s - N/A   Clear
9:53 PM 24.4 °C - 22.2 °C 87% 1014.3 hPa 9.7 km SSW 5.6 km/h / 1.5 m/s - N/A   Clear
10:53 PM 24.4 °C - 22.2 °C 87% 1014.2 hPa 9.7 km SSW 5.6 km/h / 1.5 m/s - N/A   Clear
11:53 PM 24.4 °C - 22.2 °C 87% 1013.8 hPa 9.7 km SSW 5.6 km/h / 1.5 m/s - N/A   Clear